Location: Caltech
(34.1382°N, 118.1253°W)
Time: 17:27:43
(UTC-07:00)

Cosmos 1937 Rocket - Visible Passes

Search period start: 27 August 2016 00:00
Search period end: 06 September 2016 00:00
Orbit: 747 x 781 km, 74.0° (Epoch: 27 August)

Date Brightness Start Highest point End Pass type
(mag) Time Alt. Az. Time Alt. Az. Time Alt. Az.
27 Aug 4.4 20:43:36 10° N 20:48:15 31° ENE 20:49:28 28° E visible
27 Aug 5.3 22:25:43 10° NW 22:29:40 26° W 22:29:40 26° W visible
28 Aug 5.1 20:06:14 10° NNE 20:09:44 18° ENE 20:12:16 13° E visible
28 Aug 4.2 21:46:52 10° NNW 21:51:57 49° WSW 21:52:28 47° WSW visible
29 Aug 3.4 21:08:26 10° NNW 21:13:45 89° ENE 21:15:21 47° SSE visible
30 Aug 3.8 20:30:20 10° N 20:35:27 48° ENE 20:38:18 25° SE visible
30 Aug 5.9 22:13:44 10° WNW 22:16:56 16° W 22:18:31 14° WSW visible
31 Aug 4.6 19:52:33 10° N 19:57:02 27° ENE 20:01:21 11° ESE visible
31 Aug 5.1 21:34:20 10° NW 21:38:54 30° W 21:41:34 20° SW visible
01 Sep 4.1 20:55:37 10° NNW 21:00:48 57° WSW 21:04:44 17° S visible
02 Sep 3.5 20:17:15 10° NNW 20:22:34 78° ENE 20:27:52 10° SSE visible
03 Sep 4.0 19:39:13 10° N 19:44:15 42° ENE 19:49:15 10° SE visible
03 Sep 6.0 21:22:11 10° NW 21:25:49 19° W 21:29:26 10° SW visible
04 Sep 5.1 20:43:00 10° NW 20:47:46 35° W 20:52:32 10° SSW visible
05 Sep 4.0 20:04:22 10° NNW 20:09:38 66° WSW 20:14:53 10° S visible
